Regional Weather Roundup
Issued by NWS Wakefield, VA

Home | Current Version | Previous Version | Graphics & Text | Print | Product List | Glossary On
Versions: 1 2 3 4 5 6 7 8 9 10 11 12 13 14 15 16 17 18 19 20 21 22 23 24 25 26 27 28 29 30 31 32 33 34 35 36 37 38 39 40 41 42 43 44 45 46 47 48 49 50
000
ASUS41 KAKQ 261710
RWRAKQ

REGIONAL WEATHER ROUNDUP
NATIONAL WEATHER SERVICE WAKEFIELD VA
1200 PM EST THU FEB 26 2015

Note: "fair" indicates few or no clouds below 12,000 feet with no
significant weather and/or obstructions to visibility. * = Denotes
station may not report precipitation (e.g., rain,snow,etc.),
thunder or fog.

VAZ042-051-052>054-056-261800-
NORTHERN VIRGINIA

CITY           SKY/WX    TMP DP  RH WIND       PRES   REMARKS
WASH NATIONAL  CLOUDY    34  24  67 N12       29.92S
DULLES         CLOUDY    31  23  72 N8        29.91S
FORT BELVOIR   PTSUNNY   34  25  71 N8        29.92F
QUANTICO       CLOUDY    33  25  72 NE8       29.93S
FREDERICKSBRG* CLOUDY    35  28  77 N8        29.90R
STAFFORD*      CLOUDY    32  24  72 N9        29.95R
WARRENTON      CLOUDY    34  31  89 N7        29.90S
CULPEPER*      PTSUNNY   34  27  75 N8        29.91S
MANASSAS*      CLOUDY    34  28  80 N10       29.92S
LEESBURG*      CLOUDY    32  27  80 N13       29.92F WCI  22
WINCHESTER     CLOUDY    32  21  64 N3        29.90R
FRONT ROYAL*   CLOUDY    30  25  80 NE6       29.89R
LURAY*         CLOUDY    34  28  80 NE5       29.88S
$$

VAZ048-049-060>072-079>083-261800-
CENTRAL AND SOUTH CENTRAL VIRGINIA

CITY           SKY/WX    TMP DP  RH WIND       PRES   REMARKS
RICHMOND       CLOUDY    34  27  75 N15G21    29.86R FOG     WCI  24
CHESTERFIELD*  CLOUDY    34  19  55 N10G20    29.87R
PETERSBURG*    LGT SNOW  34  31  89 N8G16     29.87R
HANOVER        CLOUDY    34  26  72 N12G21    29.88S
TAPPAHANNOCK*  LGT SNOW  33  27  76 N9        29.87S
QUINTON*       CLOUDY    32  29  90 N8        29.85S
CHARLOTTSVILLE CLOUDY    33  24  69 NE12      29.88R WCI  24
GORDONSVILLE*  CLOUDY    32  25  77 N9        29.88F
ORANGE*        CLOUDY    34  28  80 N8        29.90F
LOUISA*        CLOUDY    34  27  75 NE8       29.86F
BUMPASS*       CLOUDY    32  26  80 N5        29.88S
FARMVILLE*     CLOUDY    35  29  78 N8        29.88R
CREWE*         CLOUDY    33  26  77 N7        29.88R
FORT PICKETT*  CLOUDY    32  28  83 N10       29.88R WCI  24
CHASE CITY*    CLOUDY    34  31  89 N3        29.89R
CLARKSVILLE*   CLOUDY    32  28  86 N9        29.88R
SOUTH HILL*    CLOUDY    32  28  85 N10G17    29.92R WCI  24
LAWRENCEVILLE* CLOUDY    33  30  89 N6        29.85R
EMPORIA*       LGT SNOW  32  30  93 NW8       29.86R
$$

VAZ088>098-261800-
SOUTHEAST VIRGINIA

CITY           SKY/WX    TMP DP  RH WIND       PRES   REMARKS
NORFOLK        LGT SNOW  32  29  88 N16G29    29.80R FOG     WCI  21
VIRGINIA BEACH LGT SNOW  35  32  88 N18G32    29.78R FOG     WCI  24
NORFOLK NAVAL  DRIZZLE   34  29  82 N21       29.83R FOG     WCI  22
WEST POINT*    CLOUDY    36  30  79 N7        29.87S
SALUDA*        CLOUDY    32  28  86 N13G22    29.84S WCI  22
NEWPORT NEWS   LGT SNOW  35  29  78 N16G23    29.83R
LANGLEY AFB    LGT SNOW  32  28  86 N16G24    29.82R FOG     WCI  21
FORT EUSTIS    LGT RAIN  34  34 100 NE9       29.81R FOG
WILLIAMSBURG*  PTSUNNY   36  34  93 N9        29.84R
HR EXEC AP*    CLOUDY    32  28  86 N10G21    29.84R WCI  24
FRANKLIN*      CLOUDY    33  31  94 N8        29.84R FOG
WAKEFIELD      LGT SNOW  34  30  85 N7        29.84R FOG
$$

VAZ020-022-025-037-045-261800-
WEST CENTRAL AND SOUTHWEST VIRGINIA

CITY           SKY/WX    TMP DP  RH WIND       PRES   REMARKS
STAUNTON*      CLOUDY    33  25  72 N3        29.88R
WAYNESBORO*    CLOUDY    30  25  83 N6        29.85R
HOT SPRINGS VA CLOUDY    25  24  94 CALM      29.72R
LYNCHBURG      CLOUDY    33  26  75 NE8       29.89R
DANVILLE       CLOUDY    34  27  75 N8        29.91R
SOUTH BOSTON*  CLOUDY    33  28  83 N7        29.90R
MARTINSVILLE   CLOUDY    35  28  75 NE3       29.92R
ROANOKE        CLOUDY    35  24  64 NE5       29.89R
BLACKSBURG     CLOUDY    31  23  72 W3        29.87R
DUBLIN*        CLOUDY    35  26  69 CALM      29.86R
MARION*        CLOUDY    33  23  66 CALM      29.86R
HILLSVILLE*    CLOUDY    30  25  81 N3        29.82R
RICHLANDS*     CLOUDY    31  26  82 W6        29.84R
WISE*          CLOUDY    32  27  80 N6        29.87R
ABINGDON*      CLOUDY    36  29  75 W7        29.87R
$$

MDZ021>025-VAZ099-100-261800-
SOUTHERN MARYLAND AND THE DELMARVA PENINSULA

CITY           SKY/WX    TMP DP  RH WIND       PRES   REMARKS
PATUXENT RIVER LGT SNOW  31  26  82 N16       29.87R FOG     WCI  20
BAY BRIDGE APT   N/A     30  25  80 N16G22    29.91R WCI  19
LEONARDTOWN    CLOUDY    32  27  80 N9G16     29.88R
DOVER          MOSUNNY   30  23  74 N21       29.88F WCI  17
GEORGETOWN     LGT SNOW  32  23  69 N16G26    29.86S WCI  21
EASTON         CLOUDY    32  28  86 N10G16    29.91S WCI  24
CAMBRIDGE      PTSUNNY   34  30  86 N13G18    29.86F WCI  25
SALISBURY      MIX PCPN  33  25  72 NE18G24   29.84R WCI  22
OCEAN CITY     LGT SNOW  29  26  89 NE23G33   29.82F FOG     WCI  15
WALLOPS ISLAND FLURRIES  32  27  81 NE22G32   29.81R WCI  19
ACCOMACK*      CLOUDY    34  28  80 N13G23    29.79R WCI  25
$$

NCZ012>017-030>032-261800-
NORTH CENTRAL AND EASTERN NORTH CAROLINA

CITY           SKY/WX    TMP DP  RH WIND       PRES   REMARKS
ROANOKE RAPIDS CLOUDY    34  32  93 N12       29.84R
RALEIGH        CLOUDY    34  29  82 N5        29.88R
ELIZABETH CITY NOT AVBL
AHOSKIE*       DRIZZLE   32  30  93 N9G17     29.83R
EDENTON*       CLOUDY    34  32  93 N14       29.79R WCI  24
CURRITUCK*     MIX PCPN  33  32  94 N18G31    29.77R WCI  22
KILL DEVIL HLS DRIZZLE   35  35 100 N16G28    29.70R
MANTEO         CLOUDY    36  34  93 N22G31    29.73R WCI  24
CAPE HATTERAS  CLOUDY    37  36  96 N10G25    29.70R
TARBORO*       CLOUDY    34  32  91 N8        29.84R
GOLDSBORO      CLOUDY    35  35  98 N9G21     29.82R
WASHINGTON     CLOUDY    34  32  91 N14       29.80R WCI  25
GREENVILLE     CLOUDY    34  32  93 N13       29.85R WCI  25
NEW BERN       CLOUDY    37  33  85 N12       29.80R
WILMINGTON     CLOUDY    38  34  85 N13       29.83R
$$

VAZ048-261800-
ELSEWHERE

CITY           SKY/WX    TMP DP  RH WIND       PRES   REMARKS
HARRISBURG PA  MOSUNNY   47  15  27 NE8       29.95F
BALTIMORE      CLOUDY    31  23  72 VRB7      29.90F
ANNAPOLIS      CLOUDY    29  22  75 N13       29.90S WCI  19
ANDREWS AFB    PTSUNNY   31  25  78 N14       29.88F WCI  21
PHILADELPHIA   PTSUNNY   29  12  49 NE16      29.93F WCI  17
HENDERSON NC     N/A     33  28  81 N10G16    29.88R WCI  24
GREENSBORO     CLOUDY    33  28  81 NE10      29.88R WCI  25
ROCKY MOUNT    NOT AVBL
$$

VAZ100-261800-
MARINE

STATION/POSITION TIME  TEMP    WIND        PRES    WAVE   SWELL
                       AIR SEA DIR/SP/G            HT/PER HT/PER
                 (UTC) (F)     (DEG/KT/KT) (MB)    (FT/S) (FT/S)
BRANDYWINE LGT   1700   26 29   50/ 20/ 26 1011.6R
CAPE MAY NJ      1700   27 31   30/  7/ 20 1010.8F
LEWES DE         1700   27 30   30/ 22/ 26 1011.0F
15NM E FENWICK I 1700   32 36              1008.0F   9/ 7
OCEAN-CITY-INLET 1700   28 31   30/ 12/ 23 1009.3R
WACHAPREAGUE VA  1700   31 31   30/ 21/ 26 1008.6S
THOMAS POINT MD  1700   27 31   10/ 18/ 20 1013.0F
COVE POINT MD    1700   27      10/ 20/ 23 1011.4R
SOLOMONS ISLAND  1700      33                N/A
BISHOPS HEAD MD  1700   31 31   30/ 15/ 20 1009.9R
CAMBRIDGE MD     1700   29 32   10/ 13/ 16 1011.1R
LEWISETTA VA     1700   30 32   20/  7/ 12 1010.9R
RAPPAHANNOCK LGT 1700          360/ 19/ 21 1009.6F
STINGRAY PT      1700   30      10/ 21/ 25   N/A
YORK RVR RNG VA  1700   30      10/ 20/ 22 1009.0R
YORKTOWN VA      1700   31 32   20/ 16/ 19 1009.9R
DOMINION TERM VA 1700   32      10/ 15/ 22 1009.6R
KIPTOPEKE VA     1700      36   10/ 10/ 16   N/A
CHES BAY BRIDGE  1700   31 32  350/ 14/ 16 1008.2F
CAPE HENRY VA    1700   32     360/ 23/ 27 1007.0F
CHESAPEAKE LGHT  1600   33      20/ 36/ 39 1005.9F
WILLOUBY STN VA  1700   30     360/ 17/ 20 1009.6R
S CRANEY ISL VA  1700           10/  8/ 10 1009.2R
CAPE HENRY BUOY  1700      35                N/A    10/ 7   2/11
1ST LANDING BUOY 1700   32                 1008.4F
OFFSHORE WE BUOY 1700      38                N/A    11/ 7   2/11
64NM E OF VA BCH 1700   47 52   30/ 33/ 39 1001.6R  15/ 9
DUCK PIER NC     1700   35 35   10/ 29/ 33 1005.1R
44100 DUCK FRF   1700      38                N/A    12/ 8   2/11
44056 DUCK FRF   1700      36                N/A    11/ 8   2/11
OREGON INLET NC  1700   36 37  340/ 19/ 27 1005.3R
HATTERAS NC      1700   37 42  360/ 27/ 32 1005.6R
CAPE LOOKOUT NC  1700   37     360/ 17/ 22 1008.0R
$$



USA.gov is the U.S. government's official web portal to all federal, state and local government web resources and services.